TimeCDT,TemperatureF,Dew PointF,Humidity,Sea Level PressureIn,VisibilityMPH,Wind Direction,Wind SpeedMPH,Gust SpeedMPH,PrecipitationIn,Events,Conditions,WindDirDegrees,DateUTC
12:15 AM,75.2,62.6,65,29.93,10.0,Calm,Calm,-,N/A,,Clear,0,2013-07-21 05:15:00
12:35 AM,73.4,62.6,69,29.93,10.0,Calm,Calm,-,N/A,,Clear,0,2013-07-21 05:35:00
12:55 AM,71.6,62.6,73,29.93,10.0,Calm,Calm,-,N/A,,Clear,0,2013-07-21 05:55:00
1:15 AM,71.6,62.6,73,29.92,10.0,Calm,Calm,-,N/A,,Clear,0,2013-07-21 06:15:00
1:35 AM,71.6,60.8,69,29.91,10.0,Calm,Calm,-,N/A,,Clear,0,2013-07-21 06:35:00
1:55 AM,71.6,60.8,69,29.92,10.0,Calm,Calm,-,N/A,,Clear,0,2013-07-21 06:55:00
2:15 AM,69.8,60.8,73,29.92,10.0,Calm,Calm,-,N/A,,Clear,0,2013-07-21 07:15:00
2:35 AM,69.8,62.6,78,29.92,10.0,Calm,Calm,-,N/A,,Clear,0,2013-07-21 07:35:00
2:55 AM,71.6,62.6,73,29.91,10.0,Calm,Calm,-,N/A,,Clear,0,2013-07-21 07:55:00
3:15 AM,71.6,60.8,69,29.91,10.0,Calm,Calm,-,N/A,,Clear,0,2013-07-21 08:15:00
3:35 AM,69.8,60.8,73,29.91,10.0,Calm,Calm,-,N/A,,Clear,0,2013-07-21 08:35:00
3:55 AM,69.8,60.8,73,29.91,10.0,Calm,Calm,-,N/A,,Clear,0,2013-07-21 08:55:00
4:15 AM,69.8,60.8,73,29.91,10.0,Calm,Calm,-,N/A,,Clear,0,2013-07-21 09:15:00
4:35 AM,71.6,62.6,73,29.91,10.0,Calm,Calm,-,N/A,,Clear,0,2013-07-21 09:35:00
4:55 AM,71.6,62.6,73,29.91,10.0,Calm,Calm,-,N/A,,Clear,0,2013-07-21 09:55:00
5:15 AM,69.8,60.8,73,29.90,10.0,Calm,Calm,-,N/A,,Clear,0,2013-07-21 10:15:00
5:35 AM,69.8,62.6,78,29.90,10.0,Calm,Calm,-,N/A,,Clear,0,2013-07-21 10:35:00
5:55 AM,69.8,62.6,78,29.91,10.0,Calm,Calm,-,N/A,,Clear,0,2013-07-21 10:55:00
6:15 AM,69.8,60.8,73,29.91,10.0,Calm,Calm,-,N/A,,Clear,0,2013-07-21 11:15:00
6:35 AM,69.8,62.6,78,29.91,10.0,East,3.5,-,N/A,,Clear,90,2013-07-21 11:35:00
6:55 AM,71.6,64.4,78,29.91,10.0,Calm,Calm,-,N/A,,Clear,0,2013-07-21 11:55:00
7:15 AM,73.4,64.4,73,29.91,10.0,Calm,Calm,-,N/A,,Clear,0,2013-07-21 12:15:00
7:35 AM,73.4,64.4,73,29.91,10.0,East,4.6,-,N/A,,Clear,90,2013-07-21 12:35:00
7:55 AM,73.4,64.4,73,29.91,10.0,ESE,3.5,-,N/A,,Clear,120,2013-07-21 12:55:00
8:15 AM,75.2,64.4,69,29.92,10.0,Calm,Calm,-,N/A,,Clear,0,2013-07-21 13:15:00
8:35 AM,77.0,64.4,65,29.92,10.0,SE,4.6,-,N/A,,Clear,130,2013-07-21 13:35:00
8:55 AM,77.0,64.4,65,29.92,10.0,SE,5.8,-,N/A,,Clear,140,2013-07-21 13:55:00
9:15 AM,78.8,66.2,65,29.92,10.0,SE,6.9,-,N/A,,Clear,140,2013-07-21 14:15:00
9:35 AM,78.8,66.2,65,29.92,10.0,SE,8.1,-,N/A,,Clear,140,2013-07-21 14:35:00
9:55 AM,78.8,66.2,65,29.92,10.0,South,4.6,-,N/A,,Clear,190,2013-07-21 14:55:00
10:15 AM,78.8,66.2,65,29.92,10.0,SE,5.8,-,N/A,,Clear,140,2013-07-21 15:15:00
10:35 AM,78.8,66.2,65,29.91,10.0,SE,4.6,-,N/A,,Clear,130,2013-07-21 15:35:00
10:55 AM,78.8,66.2,65,29.92,10.0,SE,3.5,-,N/A,,Clear,140,2013-07-21 15:55:00
11:15 AM,78.8,66.2,65,29.92,10.0,SSE,4.6,-,N/A,,Clear,150,2013-07-21 16:15:00
11:35 AM,78.8,66.2,65,29.92,10.0,SE,8.1,-,N/A,,Clear,140,2013-07-21 16:35:00
11:55 AM,78.8,66.2,65,29.92,10.0,SE,5.8,-,N/A,,Clear,140,2013-07-21 16:55:00
12:15 PM,78.8,68.0,69,29.92,10.0,SE,4.6,-,N/A,,Light Drizzle,130,2013-07-21 17:15:00
1:15 PM,80.6,69.8,70,29.91,10.0,South,5.8,-,N/A,,Scattered Clouds,190,2013-07-21 18:15:00
1:35 PM,78.8,69.8,74,29.90,10.0,South,8.1,-,N/A,Rain,Rain,190,2013-07-21 18:35:00
1:55 PM,78.8,68.0,69,29.90,10.0,SSE,5.8,-,N/A,Rain,Light Rain,160,2013-07-21 18:55:00
2:15 PM,78.8,68.0,69,29.90,7.0,South,4.6,-,0.01,Rain,Rain,190,2013-07-21 19:15:00
2:35 PM,78.8,69.8,74,29.90,10.0,South,4.6,-,0.02,Rain,Light Rain,170,2013-07-21 19:35:00
2:55 PM,78.8,68.0,69,29.91,10.0,South,8.1,-,0.02,Rain,Light Rain,190,2013-07-21 19:55:00
3:15 PM,77.0,68.0,74,29.91,7.0,South,5.8,-,0.01,Rain,Light Rain,190,2013-07-21 20:15:00
3:35 PM,75.2,68.0,78,29.91,10.0,Calm,Calm,-,0.04,Rain,Light Rain,0,2013-07-21 20:35:00
3:55 PM,75.2,68.0,78,29.90,10.0,Calm,Calm,-,0.04,,Mostly Cloudy,0,2013-07-21 20:55:00
4:15 PM,75.2,64.4,69,29.90,10.0,West,3.5,-,0.03,Rain,Rain,280,2013-07-21 21:15:00
4:35 PM,73.4,64.4,73,29.90,3.0,Calm,Calm,-,0.08,Rain,Rain,0,2013-07-21 21:35:00
4:55 PM,73.4,64.4,73,29.88,10.0,NE,3.5,-,0.09,,Mostly Cloudy,50,2013-07-21 21:55:00
5:15 PM,73.4,66.2,78,29.89,10.0,Calm,Calm,-,N/A,,Overcast,0,2013-07-21 22:15:00
5:35 PM,73.4,66.2,78,29.89,10.0,NNW,3.5,-,N/A,,Overcast,340,2013-07-21 22:35:00
5:55 PM,73.4,64.4,73,29.88,10.0,North,4.6,-,N/A,Rain,Light Rain,350,2013-07-21 22:55:00
6:15 PM,71.6,62.6,73,29.90,7.0,WNW,9.2,-,0.01,Rain,Light Rain,300,2013-07-21 23:15:00
6:35 PM,71.6,62.6,73,29.87,4.0,Calm,Calm,-,0.35,Rain,Rain,0,2013-07-21 23:35:00
6:55 PM,71.6,62.6,73,29.85,7.0,East,5.8,-,0.40,Rain,Rain,90,2013-07-21 23:55:00
7:15 PM,71.6,64.4,78,29.85,10.0,SE,5.8,-,0.01,Rain,Light Rain,140,2013-07-22 00:15:00
7:35 PM,73.4,64.4,73,29.85,10.0,SSE,5.8,-,0.01,,Clear,150,2013-07-22 00:35:00
7:55 PM,73.4,64.4,73,29.84,10.0,ESE,3.5,-,0.02,,Scattered Clouds,120,2013-07-22 00:55:00
8:15 PM,73.4,64.4,73,29.84,10.0,SSE,5.8,-,N/A,,Mostly Cloudy,150,2013-07-22 01:15:00
8:35 PM,71.6,64.4,78,29.83,10.0,SSE,4.6,-,N/A,,Scattered Clouds,150,2013-07-22 01:35:00
8:55 PM,71.6,64.4,78,29.83,10.0,SSE,5.8,-,N/A,,Clear,150,2013-07-22 01:55:00
9:15 PM,71.6,64.4,78,29.85,10.0,Calm,Calm,-,N/A,,Clear,0,2013-07-22 02:15:00
9:35 PM,71.6,62.6,73,29.87,10.0,Calm,Calm,-,N/A,,Clear,0,2013-07-22 02:35:00
9:55 PM,71.6,62.6,73,29.87,7.0,Calm,Calm,-,N/A,,Clear,0,2013-07-22 02:55:00
10:15 PM,69.8,62.6,78,29.88,2.5,Calm,Calm,-,N/A,,Haze,0,2013-07-22 03:15:00
10:35 PM,71.6,62.6,73,29.88,7.0,Calm,Calm,-,N/A,,Mostly Cloudy,0,2013-07-22 03:35:00
10:55 PM,69.8,62.6,78,29.88,4.0,Calm,Calm,-,N/A,,Haze,0,2013-07-22 03:55:00
11:15 PM,69.8,62.6,78,29.88,5.0,Calm,Calm,-,N/A,,Haze,0,2013-07-22 04:15:00
11:35 PM,71.6,62.6,73,29.89,5.0,Calm,Calm,-,N/A,,Haze,0,2013-07-22 04:35:00
11:55 PM,69.8,62.6,78,29.88,4.0,Calm,Calm,-,N/A,,Haze,0,2013-07-22 04:55:00